Tracking 19636 objects as of 25-May-2019
HD Live streaming from Space Station
objects crossing your sky now

INTELSAT 903

Track INTELSAT 903 now!
INTELSAT 903 is classified as:


NORAD ID: 27403
Int'l Code: 2002-016A
Perigee: 35,779.9 km
Apogee: 35,807.2 km
Inclination: 1.4 °
Period: 1,436.1 minutes
Semi major axis: 42164 km
RCS: 28.8022 m2 (large)
Launch date: March 30, 2002
Source: International Telecommunications Satellite Organization (ITSO)
Launch site: TYURATAM MISSILE AND SPACE COMPLEX (TTMTR)

76 C-band, 22 Ku-band, broadcasting, business services, direct-to-home TV broadcasting, telecommunications, VSAT networks; Atlantic Ocean region.
aabbcc
Your satellite tracking list
Your tracking list is empty




NASA's NSSDC Master Catalog

Two Line Element Set (TLE):
1 27403U 02016A   19144.82638674 -.00000229  00000-0  00000+0 0  9991
2 27403   1.3901  91.7589 0003237 355.2862  61.0774  1.00272385 62772
Source of the keplerian elements: AFSPC